GEFSMW_500_meanwind_036.txt.gz
Wind_Speed
20 22 23 25 27 29 31 32 34 36 37 37 37 37 37 37 38 36 36 36 36 37 37 36 36 35 33 32 31 31 32 33 33 34 35 36 35 35 33 33 31 30 29
20 22 23 25 27 29 31 32 34 35 36 36 36 36 37 37 38 38 37 37 37 38 38 38 37 36 35 34 32 31 31 31 33 34 35 36 36 34 33 32 32 31 29
20 22 24 26 29 30 32 33 34 35 36 37 37 37 38 38 39 39 39 38 39 40 41 40 40 39 37 36 34 32 32 32 32 34 35 36 35 34 34 33 31 30 29
22 24 26 28 30 31 33 33 34 35 37 38 39 39 40 40 40 41 41 41 41 41 41 42 42 42 40 38 37 35 35 34 33 33 34 35 35 33 33 33 32 30 29
24 25 27 28 30 32 33 35 35 36 37 39 40 41 41 41 42 42 42 41 41 42 42 42 42 43 43 41 40 39 38 37 36 35 35 35 37 37 35 32 31 30 29
24 26 27 29 30 32 34 35 37 37 39 40 41 42 41 41 41 41 41 41 41 42 42 41 41 41 42 42 42 41 40 40 39 38 37 36 36 37 37 35 32 31 30
26 27 28 30 32 34 35 36 37 38 40 40 41 41 41 40 40 40 41 41 41 41 42 41 40 40 40 41 42 43 43 43 42 41 40 39 37 36 37 36 35 33 32
27 29 30 32 33 34 36 37 38 39 40 40 40 40 40 40 40 40 41 41 41 41 41 42 42 41 41 42 42 43 44 44 44 44 44 42 41 40 38 38 37 36 34
28 30 31 33 34 36 37 38 39 39 40 40 39 40 40 40 40 40 41 41 41 41 42 43 44 44 45 45 45 45 45 46 47 47 47 45 44 43 41 40 40 38 37
30 31 32 34 36 37 38 39 40 40 40 40 40 40 40 40 40 40 41 41 42 42 43 45 46 48 49 49 49 50 49 49 50 50 50 49 47 46 44 42 42 41 40
31 32 34 35 37 38 40 41 41 41 41 40 40 40 40 40 40 41 42 42 43 44 46 47 49 50 52 53 54 55 55 54 54 54 53 53 52 50 48 46 44 43 43
32 34 35 37 38 40 41 42 42 42 42 42 42 41 41 40 40 41 42 43 44 46 48 50 52 53 55 57 59 60 60 60 59 58 57 57 56 55 52 50 48 46 45
33 35 36 38 39 41 42 43 44 44 43 43 43 42 41 41 42 43 44 45 47 49 50 52 54 56 58 60 61 62 63 63 62 62 61 61 60 59 57 54 52 49 48
35 37 38 40 41 42 43 44 44 44 44 44 43 43 42 42 43 45 46 47 48 50 51 53 54 56 58 59 60 61 62 63 62 62 63 63 63 62 61 59 57 54 51
37 39 41 42 42 43 44 45 45 45 45 44 44 43 42 43 44 45 46 48 49 51 52 53 53 54 54 55 56 58 59 60 61 61 62 63 64 64 64 63 61 59 56
39 40 42 42 43 43 44 45 46 46 45 45 44 43 43 44 45 46 47 48 50 50 51 51 50 49 49 49 50 52 53 55 56 57 58 60 63 65 65 64 63 62 60
40 41 42 43 44 44 45 46 46 46 46 45 45 44 44 44 45 46 48 49 49 49 48 47 47 46 45 44 44 45 47 49 50 51 53 56 58 62 64 65 64 64 62
41 43 44 44 45 45 46 47 47 47 46 46 45 44 44 44 45 47 48 49 47 46 45 45 44 43 41 39 38 38 39 42 45 47 50 52 53 56 60 63 64 64 64
43 44 45 45 45 45 46 46 47 47 46 45 44 44 44 44 45 47 48 47 45 44 43 42 40 37 34 32 31 30 31 34 38 42 45 48 49 50 53 58 61 63 64
43 44 45 46 46 46 46 47 47 47 46 45 44 43 43 45 45 46 46 44 42 41 40 38 35 33 30 27 25 24 24 26 30 35 40 44 44 45 47 51 55 59 61
44 45 46 47 47 47 46 47 47 47 46 44 43 43 43 44 45 46 44 42 40 39 38 36 32 29 26 23 20 18 19 21 24 28 33 38 40 42 43 45 49 53 57
44 45 46 47 48 48 47 47 47 47 45 44 43 42 43 44 45 44 42 39 38 37 35 33 30 27 23 19 15 13 14 16 20 24 29 33 36 37 39 41 44 48 52
43 45 46 47 48 48 48 48 47 46 45 43 42 41 42 43 44 42 39 38 37 35 32 30 27 23 19 15 10 8 9 13 17 20 25 28 31 33 35 37 39 42 46
43 44 46 47 48 48 49 48 47 46 44 43 42 41 41 42 42 40 38 37 35 32 31 28 24 20 16 12 8 5 7 11 15 19 22 25 27 28 30 33 35 37 41
43 44 45 47 48 49 49 48 47 46 44 43 41 40 41 42 41 39 37 35 33 31 29 26 21 17 14 10 7 3 5 9 13 16 20 22 23 25 26 29 31 33 36
42 43 45 47 48 49 49 48 47 46 44 42 40 40 40 40 40 38 36 34 32 29 27 24 20 15 12 9 5 1 3 7 11 15 19 20 21 22 24 27 29 31 33

GEFSMW_500_meanwind_042.txt.gz
Wind_Speed
16 18 19 21 23 24 26 28 30 32 33 35 35 36 37 38 38 38 37 37 36 37 37 37 37 36 35 35 34 34 33 33 32 31 30 28 28 30 32 32 33 34 35
15 17 18 20 22 24 26 28 30 31 33 34 35 35 36 36 37 37 37 37 37 36 36 36 36 36 36 36 35 35 35 34 33 32 31 30 28 27 30 32 32 32 33
13 16 17 19 20 22 24 26 28 30 31 33 34 34 35 35 36 36 36 36 36 35 35 35 35 36 36 36 36 35 35 34 33 33 32 31 30 28 28 29 31 32 33
12 14 16 17 19 21 22 24 26 28 30 31 32 33 34 35 36 36 36 36 36 35 35 34 34 34 34 34 34 35 35 34 34 34 33 32 30 29 28 28 30 32 33
11 14 16 18 20 21 23 24 26 27 29 30 32 33 34 34 35 35 35 35 35 35 34 33 32 32 32 33 33 33 34 34 34 34 33 33 31 31 30 29 29 30 31
13 15 17 19 21 23 24 26 27 29 30 32 33 34 34 35 35 35 35 35 36 36 36 34 33 32 32 33 33 32 32 33 34 34 34 34 33 32 32 31 30 29 30
16 18 20 22 24 26 28 29 31 32 33 34 35 36 36 36 36 36 37 37 37 38 38 37 36 35 34 33 33 33 33 33 33 34 34 35 35 35 34 33 31 31 32
20 22 24 26 28 30 31 33 34 35 36 37 37 37 38 38 38 38 38 39 39 39 40 40 40 39 37 36 35 34 34 34 34 34 34 35 36 36 36 35 33 31 32
24 25 28 30 31 33 35 36 37 37 37 38 38 38 38 38 39 39 39 39 40 40 41 41 41 41 40 39 39 38 37 36 36 35 35 36 36 37 37 38 36 34 33
26 28 31 33 34 36 37 38 38 39 39 38 38 38 39 39 39 40 40 40 41 41 41 41 41 42 42 41 41 41 41 40 39 39 38 38 38 38 39 39 40 38 36
29 30 33 35 36 37 38 38 39 39 39 39 39 40 40 40 40 41 41 41 41 41 41 41 42 42 42 43 43 43 44 44 43 43 43 42 42 41 41 41 41 41 39
29 32 34 36 36 37 38 39 39 39 39 39 40 41 41 42 42 42 42 42 41 41 41 41 41 41 42 43 44 45 46 47 47 47 47 47 47 47 46 45 43 43 42
30 33 35 36 36 37 38 38 38 39 40 41 41 42 43 43 44 43 43 42 41 41 41 41 41 41 43 44 45 47 48 49 49 50 51 51 51 51 51 50 49 47 45
31 34 35 36 36 37 38 39 39 40 41 42 43 43 44 44 44 43 42 41 41 40 40 40 41 42 43 45 46 48 49 50 51 52 52 53 54 54 55 54 54 52 50
32 34 35 36 37 38 39 40 40 41 42 44 44 45 45 45 44 43 42 41 40 40 40 41 42 43 44 45 46 47 48 50 51 52 53 54 55 56 57 57 58 57 55
33 34 36 37 38 39 40 41 42 42 44 45 46 46 46 45 44 43 42 41 40 40 41 42 42 42 43 44 45 46 47 48 49 50 51 53 54 55 58 59 61 61 60
33 35 37 38 39 40 41 42 43 44 45 46 47 47 46 45 44 43 42 40 40 41 42 41 41 41 42 43 43 43 44 44 45 47 49 50 51 52 56 59 62 64 63
34 36 37 39 40 41 42 43 44 45 46 47 48 48 47 46 44 43 41 41 41 41 41 40 40 40 40 40 40 40 40 41 41 43 45 46 48 49 52 57 60 63 65
35 37 38 39 40 41 42 44 45 46 47 48 48 48 47 46 44 42 41 41 41 40 40 39 39 39 38 38 37 37 36 36 37 38 40 42 43 46 49 53 57 61 65
37 38 39 40 41 42 43 44 45 46 47 48 49 49 48 46 44 42 42 41 40 39 39 38 38 37 36 34 33 33 32 32 32 33 34 36 39 42 46 49 53 58 63
37 38 40 41 42 42 43 45 45 47 48 48 49 49 48 46 44 42 42 41 40 39 38 37 37 35 33 31 30 29 27 26 26 26 27 30 33 37 42 46 49 54 60
38 39 41 42 42 43 44 45 45 46 48 48 49 49 48 46 44 43 41 41 40 38 37 37 35 33 31 29 27 26 23 21 20 19 20 23 28 33 37 42 44 49 56
39 40 42 42 43 43 44 45 45 46 48 48 49 48 48 46 44 42 41 41 39 37 36 35 33 31 29 27 24 22 19 18 16 14 14 17 22 27 33 38 41 44 50
40 42 42 43 43 43 44 45 45 46 48 49 49 48 47 46 44 42 41 40 38 36 35 33 31 29 27 24 21 18 17 14 11 8 8 12 17 23 29 35 39 42 46
42 43 43 43 43 43 44 45 45 46 47 49 49 48 47 45 43 41 40 40 38 36 34 32 29 27 25 22 19 16 14 11 7 6 6 9 14 20 25 30 35 38 42
43 43 43 43 43 44 44 45 45 46 47 48 48 47 46 45 43 40 40 39 37 36 34 31 28 27 23 20 17 14 11 8 6 5 5 8 12 17 22 28 32 36 39

GEFSMW_500_meanwind_048.txt.gz
Wind_Speed
18 16 15 16 17 18 20 21 23 24 25 27 28 29 30 31 31 32 32 32 33 33 33 33 33 34 34 34 34 33 33 32 32 31 30 30 30 29 29 28 28 29 30
14 13 14 16 17 19 20 22 23 25 26 28 29 30 31 32 33 33 33 33 32 32 32 33 33 33 34 34 34 34 33 33 33 32 32 31 31 30 30 30 29 29 31
9 11 13 15 17 19 20 22 23 25 27 29 30 31 32 33 33 34 34 33 32 32 32 32 32 32 32 33 33 34 34 35 34 34 33 32 32 32 31 31 31 31 32
8 11 13 15 17 18 20 22 24 26 27 29 30 31 31 32 33 33 33 33 32 31 31 31 31 31 31 32 32 33 33 34 35 34 34 33 33 33 33 33 32 31 32
8 10 13 15 17 19 21 22 24 25 27 28 28 29 30 30 31 31 31 31 31 31 30 30 31 31 31 32 32 33 33 33 34 34 34 34 34 34 34 34 34 33 32
9 11 14 16 17 19 20 21 23 24 25 26 27 28 28 28 29 29 30 30 31 31 31 31 31 32 32 33 33 34 34 34 34 35 35 35 35 35 35 35 35 34 34
10 12 14 15 16 18 19 21 22 24 25 26 27 27 27 28 29 29 30 30 31 32 33 33 33 34 34 35 35 35 36 36 36 36 36 36 36 37 36 36 36 35 35
11 12 13 15 16 18 20 21 23 25 26 27 27 27 28 29 29 30 30 31 32 33 34 35 36 37 37 37 37 37 37 38 38 38 38 37 37 37 37 37 37 37 37
11 12 14 15 17 19 21 23 24 26 27 28 28 28 29 29 30 31 31 32 34 35 36 37 37 38 38 38 38 38 38 39 39 40 40 39 39 39 39 39 39 39 39
12 13 14 16 19 21 23 25 26 27 29 29 30 30 30 31 32 33 34 35 37 38 38 39 39 39 38 38 38 38 38 38 39 39 40 41 41 41 41 41 41 40 40
13 14 16 19 21 24 26 27 28 29 30 31 31 32 33 34 35 36 37 38 39 40 40 39 39 39 38 38 37 37 37 37 37 38 39 40 41 42 43 43 43 43 42
15 17 19 22 24 26 27 29 30 31 32 33 33 34 35 36 37 38 39 41 41 41 41 40 39 39 38 37 36 36 36 36 37 38 39 40 41 42 43 44 44 45 44
18 20 22 24 26 27 29 30 32 33 34 35 35 37 38 39 40 40 42 43 43 43 42 41 40 39 38 37 37 37 37 37 37 38 39 40 41 42 44 45 46 47 47
20 22 23 25 27 29 30 32 34 35 36 37 37 38 40 41 41 42 44 44 45 44 43 42 41 40 39 38 38 37 37 37 37 38 39 40 42 43 45 46 47 48 49
21 23 25 27 29 31 32 34 35 37 38 38 39 40 41 42 43 44 45 46 46 45 43 43 42 41 40 39 38 37 36 36 37 38 39 40 42 44 46 47 49 50 51
23 24 26 28 31 32 34 36 37 38 39 40 40 41 42 43 44 45 46 47 47 46 44 44 42 41 41 40 38 37 36 36 37 38 39 41 42 44 46 48 50 52 53
24 26 28 30 32 34 36 38 39 40 40 41 41 42 43 44 46 46 47 47 47 46 45 44 42 41 41 40 38 37 36 36 37 38 40 41 42 43 45 47 49 52 54
26 28 30 32 34 36 38 40 40 41 41 42 42 43 44 45 47 47 48 48 47 46 44 43 42 41 40 39 38 38 37 36 36 37 38 40 41 43 44 46 48 51 54
28 30 32 33 35 37 39 41 41 41 42 42 43 44 45 46 48 48 49 48 47 46 44 43 42 41 40 39 38 37 36 35 35 36 37 37 38 40 42 44 46 49 52
29 31 33 35 37 39 40 41 41 42 42 43 44 45 46 47 48 49 49 49 47 45 44 42 42 40 39 38 38 37 36 34 34 34 35 35 35 37 40 41 43 45 50
31 33 35 37 39 40 41 41 42 43 43 44 46 47 48 49 49 49 50 49 47 45 43 42 41 40 38 38 37 35 34 33 32 31 31 31 32 34 36 38 40 43 48
33 35 37 39 41 41 42 42 43 44 45 46 47 48 49 50 50 50 49 48 46 44 42 41 40 39 38 37 35 34 33 31 30 28 27 27 28 29 31 33 36 40 45
36 37 39 41 42 42 42 43 44 45 47 48 49 50 50 50 50 50 49 47 45 43 40 39 39 38 37 36 34 31 30 29 27 26 25 24 24 25 26 28 32 36 40
39 40 41 42 43 43 43 44 46 48 49 50 51 51 51 51 51 50 48 46 44 42 40 38 38 37 36 35 32 30 28 26 24 23 22 21 20 20 21 23 27 31 36
41 42 42 43 44 45 45 47 48 50 51 53 53 53 52 51 49 48 47 45 43 41 38 37 37 36 34 33 30 28 26 24 22 21 19 17 16 16 16 17 19 23 30
41 42 43 44 46 47 49 50 51 52 53 55 55 54 52 50 48 46 45 44 42 40 38 37 36 35 33 31 29 27 25 22 21 19 17 15 14 12 12 11 13 18 23

GEFSMW_500_meanwind_054.txt.gz
Wind_Speed
16 14 12 11 9 9 9 10 11 12 14 15 17 18 19 20 21 21 22 22 23 23 23 24 24 24 25 25 25 25 26 26 26 28 28 29 29 30 30 31 31 31 32
13 10 9 7 7 8 9 10 12 13 15 17 19 20 21 22 22 22 22 23 23 23 23 23 23 24 24 24 25 25 25 25 26 27 27 29 29 30 30 31 32 32 33
8 7 6 5 7 8 10 12 13 15 17 19 20 21 22 23 23 23 22 22 23 23 23 23 23 23 24 24 24 25 25 26 26 26 27 28 30 30 31 32 33 33 34
4 4 4 5 7 9 11 13 15 17 18 19 21 21 22 22 22 22 22 22 22 22 22 22 22 23 23 24 24 25 26 26 27 27 28 29 29 31 32 33 34 35 35
3 3 5 7 9 11 13 15 17 18 18 19 20 20 20 21 21 21 21 21 20 20 20 21 21 22 23 24 25 26 27 27 28 29 29 30 31 31 33 34 35 35 36
5 5 7 9 10 12 14 15 17 18 19 19 19 20 20 20 21 21 21 21 21 20 20 21 21 22 23 24 26 27 28 29 30 31 32 33 33 34 34 35 36 37 38
7 8 9 11 11 13 14 16 17 18 19 19 19 20 20 20 20 21 21 22 22 22 22 23 23 24 25 26 27 28 30 31 32 33 34 35 36 36 37 37 38 39 39
10 11 12 12 13 14 15 17 17 18 18 19 19 20 21 21 21 22 22 23 23 24 25 26 26 27 27 28 29 30 31 32 34 35 36 37 38 39 39 39 40 41 42
11 12 13 13 14 15 16 17 17 18 19 20 20 21 21 22 23 23 24 24 25 26 26 28 29 30 31 31 32 32 33 34 34 36 37 38 40 40 41 41 42 43 44
12 13 13 14 15 15 16 17 18 19 20 21 22 22 23 24 25 25 26 27 27 28 29 30 31 33 33 34 34 34 34 34 35 35 36 38 40 40 41 42 43 44 45
13 14 15 15 15 16 17 18 19 20 21 22 23 24 25 25 26 27 28 29 30 31 31 33 34 35 36 36 36 36 35 35 36 36 36 37 39 40 41 42 43 44 45
14 14 15 15 16 17 18 19 20 21 22 24 25 26 27 28 29 29 30 31 32 33 35 36 37 38 38 38 38 38 37 37 37 37 37 37 38 39 40 41 43 44 45
15 15 15 16 17 18 19 20 21 23 24 26 27 28 29 30 30 31 32 33 35 36 38 39 40 40 40 40 40 39 39 38 37 37 37 37 38 39 40 40 42 43 44
15 15 16 17 18 19 20 21 23 24 26 28 29 30 31 32 32 33 35 36 37 39 40 42 42 42 43 42 41 40 39 38 37 37 36 36 37 37 39 40 41 42 44
16 16 17 18 19 20 22 23 25 26 28 30 31 31 32 33 34 35 37 38 40 41 43 44 44 44 44 43 42 41 39 38 37 36 36 36 36 37 38 39 40 42 43
17 17 18 19 20 22 24 25 27 28 30 31 32 32 33 34 35 37 39 41 42 44 45 46 46 46 45 44 42 40 38 37 36 36 35 35 35 36 37 38 40 41 43
18 19 20 21 23 24 26 27 28 30 31 32 33 33 34 35 37 40 42 43 44 46 47 47 47 46 45 43 41 39 37 36 35 35 35 35 35 36 36 37 39 41 42
19 20 22 23 25 26 28 29 30 31 32 33 33 34 35 37 40 43 45 46 47 48 49 48 47 45 43 41 39 37 35 34 34 34 34 35 35 36 36 37 38 40 41
21 22 24 25 27 28 30 31 32 32 33 34 34 35 37 40 43 45 47 48 49 50 50 48 46 43 41 40 38 36 34 33 33 33 34 34 33 34 35 36 36 38 40
24 25 26 28 29 31 32 33 33 34 34 35 36 38 40 42 45 48 49 50 50 50 49 47 44 42 40 38 37 35 33 33 33 33 33 32 31 32 33 34 36 37 39
27 27 29 30 32 33 34 35 35 35 36 37 38 41 43 45 48 50 51 51 51 50 48 45 42 40 38 36 35 33 32 32 32 31 31 30 30 30 32 33 34 35 38
30 31 32 33 34 35 36 37 37 37 38 39 42 44 46 49 51 52 52 53 53 50 47 43 40 38 37 35 33 32 31 31 31 30 29 29 29 29 30 30 32 33 35
33 34 35 36 37 38 39 40 40 40 41 43 45 47 49 50 53 54 54 54 53 49 45 42 39 37 35 34 33 32 31 31 30 29 28 28 28 28 28 28 29 30 31
35 36 37 38 40 41 43 43 44 43 44 46 48 49 51 52 55 55 55 53 51 47 44 41 38 36 34 34 32 31 30 30 29 28 27 27 26 26 25 26 26 27 28
36 37 39 41 42 45 47 48 47 48 49 49 50 52 54 55 56 56 55 52 49 45 42 40 37 35 33 32 31 31 30 29 28 27 26 25 24 24 24 24 24 25 26
38 39 41 43 45 49 52 52 52 52 52 52 53 54 55 56 57 55 52 49 46 43 40 39 37 34 32 31 30 30 29 28 28 26 25 24 24 24 23 22 23 23 24